ABS 2A

导读

ABS 2A(又称Mongolsat-1)是由波音公司建造、亚洲广播卫星公司(ABS)运营的通信卫星,北京时间2016年6月15日由SpaceX猎鹰9号火箭与Eutelsat 117 West B双星拼车发射,定点地球静止轨道。卫星主要服务蒙古通信市场,提供广播、宽带通信等业务,大幅提升亚太区域卫星通信容量,支撑区域广播电视传输与互联网接入需求,设计运营寿命超15年。

基本信息
目录编号:
41588
目录名称:
ABS 2A
国际标识:
2016-038A
轨道中心:
EARTH
卫星名称:
ABS 2A
卫星全名:
--
卫星状态:
在轨 (已飞行3743 天)
发射日期:
2016-06-15 UTC
国别 :
(ABS)
星等 :
--
该卫星已列入 空间交会检测服务 Space Conjunction Data Service (SCDS) ,当前飞行风险评估等级: 无高风险
轨道信息
数据来源 国际轨道数据 AOE轨道数据
星历时间 2026-09-14T04:42:22+0800
6小时前
查看轨道信息
2026-09-12T08:00:00+0800
2天前
查看轨道信息
半长轴 42165.345km 42165.009km
偏心率 0.0001721 0.0001714
轨道倾角 0.022° 0.025°
近地点辐角 306.643° 328.127°
升交点赤经 164.743° 145.202°
平近点角 266.757° 312.383°
近地点 35779.951km 35779.644km
远地点 35794.465km 35794.1km
周期 1436.128分钟 1436.111分钟
每日圈数 1.002696 1.002708
详细信息
使用方式:
暂无
2D轨道图
3D轨道图
轨道高度分析图
轨道倾角分析图
轨道综合分析图
查看轨道综合分析图
与全量物体交会距离演化趋势 订阅飞行安全评估服务
与全量物体交会风险概率演化趋势 订阅飞行安全评估服务